Other Surface Observations
Issued by NWS

Home | Current Version | Previous Version | Text Only | Print | Product List | Glossary On
Versions: 1 2 3 4 5 6 7 8 9 10 11 12 13 14 15 16 17 18 19 20 21 22 23 24 25 26 27 28 29 30 31 32 33 34 35 36 37 38 39 40 41 42 43 44 45 46 47 48 49 50
000
SXUS52 KTAE 201005
OSOTAE
OSOTAE
North Florida/South Alabama/Southwest Georgia Weather Roundup
National Weather Service Tallahassee Florida
600 AM EDT SAT SEP 20 2014

Note: "fair" indicates few or no clouds below 12,000 feet with no
significant weather and/or obstructions to visibility.

!FLZ017-115-028-034-025-201100
...North Florida...

CITY           SKY/WX    TMP DP  RH WIND       PRES   REMARKS
TALLAHASSEE    MOCLDY    70  68  93 NE7       29.97R
APALACHICOLA   CLEAR     72  67  84 NE9       29.94S
PERRY          MOCLDY    68  68 100 NE6       29.96S
CROSS CITY       N/A     70  68  93 NE5       29.93F
HOMERVILLE     CLOUDY    72  70  94 NE3       29.99R
JACKSONVILLE   CLOUDY    71  71 100 N5        29.94S
$$

!FLZ112-006-005-002-011-201100
...Florida Panhandle...

CITY           SKY/WX    TMP DP  RH WIND       PRES   REMARKS
MARIANNA       CLOUDY    70  70 100 NE10      29.99R
BONIFAY        PTSUNNY   68  67  96 MISG      30.00R
PANAMA CITY NW FAIR      71  67  87 NE7       29.96R
TYNDALL AFB    CLEAR     69  69  99 NE7       29.96R
TYND DRONE APT FAIR      69  68  98 MISG      29.95R
DE FUNIAK SPR  FAIR      68  67  95 NE7       29.99S
EGLIN AFB      CLEAR     71  66  85 NE7       29.97R
DESTIN         CLEAR     74  69  85 E8        29.97R
HURLBURT       CLEAR     69  63  79 NE6       29.96R
CRESTVIEW      CLEAR     67  66  97 NE3       30.00R
PENSACOLA      CLEAR     69  66  90 NE8       29.96S
$$

!ALZ063-066-201100
...South Alabama...

CITY           SKY/WX    TMP DP  RH WIND       PRES   REMARKS
DOTHAN         CLOUDY    69  67  93 E8        30.05R
OZARK CAIRNS   CLOUDY    68  66  94 NE10      30.01R
FT RUCKER HELI CLOUDY    69  67  93 NE5       30.01R
RUCKER HELI 3  MOCLDY    68  66  94 NE7       30.04R FOG
RUCKER HELI 2  CLOUDY    69  66  90 NE9       30.01R
FLORALA APT    PTCLDY    69  66  90 NE6       30.01S
ANDALUSIA      PTCLDY    72  67  84 E5        30.01R
TROY           CLOUDY    69  66  90 E6        30.04S
EUFALA         CLOUDY    70  66  87 VRB5      30.04R
MOBILE         CLEAR     69  67  93 E6        29.97S
$$

!GAZ120>161-201100
...Southwest and South Central Georgia...

CITY           SKY/WX    TMP DP  RH WIND       PRES   REMARKS
THOMASVILLE    CLOUDY    72  72 100 NE9       29.99S
BAINBRIDGE     CLOUDY    73  72  94 NE9       30.00S
MOODY AFB      CLOUDY    69  67  94 NE8       29.99R
VALDOSTA       CLOUDY    70  68  93 NE8       29.98R
MOULTRIE       CLOUDY    70  70 100 NE6       30.01R
BLAKELY        CLOUDY    72  70  94 NE5         N/A
ALBANY         CLOUDY    71  68  90 NE9       30.04R
TIFTON         CLOUDY    69  67  93 NE7       30.01R
FITZGERALD     CLOUDY    70  67  91 NE8       30.05R
CORDELE        CLOUDY    70  67  89 NE9       30.05R
AMERICUS       CLOUDY    68  68 100 NE8       30.07R
$$

!GMZ750-755-770-775-201100
...Coastal and Buoy Obs...

STATION/POSITION TIME  TEMP    WIND        PRES    VSBY  WAVE
                       AIR SEA DIR/SP/G                  HT/PER
                 (UTC) (F)     (DEG/KT/KT) (MB)    (MI)  (FT/S)
KEATON BEACH     1000   69      40/  5/  8 1014.3R
CEDAR KEY        0900   72      40/  5/  6 1013.6F
C TOWER          1000   78      80/ 14/ 16 1013.4R
APALACHICOLA BUO 1000   79 84   90/ 16/ 19 1012.5R         5/ 6
PANAMA CITY BUOY NOT AVBL
MOBILE BUOY      0920   82 84   80/ 23/ 27 1012.4S         7/ 7
ORANGE BCH AL BU 1000   80 85   70/ 16/ 19 1013.3F         5/ 7
$$



USA.gov is the U.S. government's official web portal to all federal, state and local government web resources and services.